Location: *
(50.3194°N, 7.1067°E)
Time: 19:26:50
(UTC+00:00)

Meteor 1-22 Rocket - Pass Details

Date: 22 September 2019
Orbit: 786 x 942 km, 81.2° (Epoch: 19 October)

Event Time Altitude Azimuth Distance (km) Brightness Sun altitude
Rises 19:32:47 0° 185° (S) 3,577 7.2 -19.7°
Reaches altitude 10° 19:35:15 10° 183° (S) 2,646 6.5 -20.0°
Maximum altitude 19:41:20 77° 99° (E) 972 4.3 -20.9°
Drops below altitude 10° 19:47:26 10° 15° (NNE) 2,657 6.9 -21.8°
Sets 19:49:55 0° 14° (NNE) 3,593 7.7 -22.1°
